Weather in Kretingos

Lithuania     55°53′20″N   21°14′30″E
temp.,
°C
wind,
m/s
gust,
m/s
humid.,
%
clouds,
%
prec.,
mm/h
press.,
hPa
HPBL,
m
27 february, sat
sat2723:00+3wnw49870 0.0 1018244
02:00+4nnw4118815 0.0 1020376
05:00+2nnw5138720 0.0 1021486
08:00+2nnw5138710 0.0 1023501
11:00+4nnw711730 0.0 1026683
14:00+6nnw711630 0.0 1028820
17:00+4nnw610750 0.0 1028606
20:00+1nw37910 0.0 1029202
28 february, sun
sun2823:00+2nw359176 0.0 1029140
02:00+2w348787 0.0 102982
05:00+3w358344 0.0 1027115
08:00+2wnw478764 0.0 1027163
11:00+6nw587463 0.0 1026394
14:00+8nw7116371 0.0 1027882
17:00+7nnw4107158 0.0 1027660
20:00+4nnw3108634 0.0 1029284
1 march, mon
mon123:00+3nnw39900 0.0 1029219
02:00+3nnw36910 0.0 1031108
05:00+2nw22890 0.0 103022
08:00+3w34870 0.0 103169
11:00+7w59730 0.0 1029348
14:00+7wsw611700 0.0 1028432
17:00+5w6128536 0.0 1027533
20:00+3wnw499035 0.0 1028236
2 march, tue
tue223:00+2nw23905 0.0 102840
02:00+2wnw12883 0.0 102922
05:00+2wsw23850 0.0 102822
08:00+2w22850 0.0 102822
11:00+7w34700 0.0 1028281
14:00+7w45715 0.0 1029357
17:00+5w33790 0.0 1028240
20:00+2w23910 0.0 102929
3 march, wed
wed323:00+2w11900 0.0 102922
02:00+1ssw128917 0.0 102922
05:00+1sw339554 0.0 102857
08:00+1ssw359655 0.0 1028277
11:00+1s4690100 0.0 1027357
14:00+3ssw4687100 0.0 1026388
17:00+4ssw469094 0.0 1024337
20:00+2ssw369451 0.0 1022127